GW4109 Weather Reports


time (UTC)temp
C
wind
direction
speed
KPH
gust
KPH
rain 1hr
cm
rain 24hr
cm
rain mn
cm
humidity
%
barometer
mb
20260503013655 32 109 3.2 8.0 0.00 0.00 0.00 13 1011.1
20260503013153 32 99 3.2 4.8 0.00 0.00 0.00 13 1010.9
20260503012649 32 94 3.2 6.4 0.00 0.00 0.00 13 1011.0
20260503012146 33 101 3.2 9.7 0.00 0.00 0.00 13 1011.1
20260503011643 33 97 3.2 6.4 0.00 0.00 0.00 13 1011.2
20260503011140 34 108 6.4 14.5 0.00 0.00 0.00 12 1011.0
20260503010636 34 85 3.2 8.0 0.00 0.00 0.00 12 1011.1
20260503010134 33 94 4.8 9.7 0.00 0.00 0.00 12 1011.1
20260503005631 34 107 4.8 12.9 0.00 0.00 0.00 12 1011.0
20260503005128 34 86 6.4 14.5 0.00 0.00 0.00 12 1011.0
20260503004624 34 93 4.8 9.7 0.00 0.00 0.00 12 1011.1
20260503004123 35 96 8.0 8.0 0.00 0.00 0.00 12 1011.0
20260503003619 35 80 4.8 4.8 0.00 0.00 0.00 12 1011.0
20260503003116 34 116 8.0 12.9 0.00 0.00 0.00 12 1011.2
20260503002613 34 104 6.4 9.7 0.00 0.00 0.00 12 1011.2
20260503002110 35 113 6.4 11.3 0.00 0.00 0.00 12 1011.1
20260503001606 34 106 9.7 20.9 0.00 0.00 0.00 12 1011.2
20260503001103 35 82 3.2 9.7 0.00 0.00 0.00 12 1011.0
20260503000600 35 78 6.4 16.1 0.00 0.00 0.00 12 1011.1
20260503000057 34 71 6.4 17.7 0.00 0.00 0.00 12 1011.3
20260502235554 35 87 11.3 17.7 0.00 0.00 0.00 12 1011.2
20260502235052 35 47 4.8 9.7 0.00 0.00 0.00 12 1011.2
20260502234548 35 61 3.2 8.0 0.00 0.00 0.00 12 1011.3
20260502234046 35 89 9.7 20.9 0.00 0.00 0.00 12 1011.2
20260502233546 36 192 6.4 6.4 0.00 0.00 0.00 11 1011.2
20260502233043 35 134 3.2 12.9 0.00 0.00 0.00 11 1011.3
20260502232534 36 192 3.2 6.4 0.00 0.00 0.00 11 1011.5
20260502232032 36 134 4.8 6.4 0.00 0.00 0.00 11 1011.5
20260502231528 36 80 3.2 6.4 0.00 0.00 0.00 11 1011.5
20260502231026 35 97 4.8 9.7 0.00 0.00 0.00 11 1011.5
20260502230524 35 94 6.4 9.7 0.00 0.00 0.00 11 1011.5
20260502230022 35 106 14.5 17.7 0.00 0.00 0.00 11 1011.6
20260502225522 35 59 4.8 8.0 0.00 0.00 0.00 12 1012.0
20260502225020 36 99 6.4 8.0 0.00 0.00 0.00 11 1012.0
20260502224516 36 47 3.2 8.0 0.00 0.00 0.00 11 1012.1
20260502224013 35 119 4.8 6.4 0.00 0.00 0.00 11 1012.3
20260502223511 35 33 1.6 3.2 0.00 0.00 0.00 11 1012.3
20260502223009 35 93 12.9 14.5 0.00 0.00 0.00 11 1012.2
20260502222506 36 122 9.7 14.5 0.00 0.00 0.00 11 1012.5
20260502222002 36 104 8.0 8.0 0.00 0.00 0.00 11 1012.6
20260502221458 36 257 3.2 11.3 0.00 0.00 0.00 11 1012.7
20260502220955 35 139 3.2 16.1 0.00 0.00 0.00 11 1012.9
20260502220451 36 104 0.0 9.7 0.00 0.00 0.00 11 1012.7
20260502215948 35 188 3.2 8.0 0.00 0.00 0.00 11 1013.0
20260502215445 35 114 6.4 20.9 0.00 0.00 0.00 11 1013.2
20260502214942 35 93 3.2 8.0 0.00 0.00 0.00 11 1013.2
20260502214439 35 101 6.4 8.0 0.00 0.00 0.00 11 1013.4
20260502213936 35 142 3.2 9.7 0.00 0.00 0.00 11 1013.5
20260502213432 35 103 8.0 20.9 0.00 0.00 0.00 11 1013.4
20260502212931 35 127 1.6 12.9 0.00 0.00 0.00 11 1013.2
20260502212430 35 106 14.5 22.5 0.00 0.00 0.00 11 1013.3
20260502211927 35 96 6.4 16.1 0.00 0.00 0.00 11 1013.4
20260502211422 35 174 3.2 8.0 0.00 0.00 0.00 11 1013.5
20260502210920 35 213 4.8 8.0 0.00 0.00 0.00 11 1013.7
20260502210417 35 119 6.4 6.4 0.00 0.00 0.00 11 1013.7
20260502205914 35 112 3.2 14.5 0.00 0.00 0.00 11 1013.8
20260502205410 35 98 3.2 17.7 0.00 0.00 0.00 11 1013.9
20260502204907 35 252 1.6 8.0 0.00 0.00 0.00 11 1013.7
20260502204404 35 66 6.4 14.5 0.00 0.00 0.00 11 1013.9
20260502203902 35 81 9.7 9.7 0.00 0.00 0.00 10 1013.9
20260502203359 35 92 4.8 9.7 0.00 0.00 0.00 10 1013.9
20260502202854 35 88 8.0 22.5 0.00 0.00 0.00 10 1014.0
20260502202352 35 102 4.8 9.7 0.00 0.00 0.00 11 1014.2
20260502201850 35 108 6.4 9.7 0.00 0.00 0.00 11 1014.3
20260502201346 35 102 9.7 20.9 0.00 0.00 0.00 11 1014.2
20260502200842 35 154 4.8 12.9 0.00 0.00 0.00 10 1014.3
20260502200338 34 99 6.4 14.5 0.00 0.00 0.00 11 1014.2
20260502195836 35 344 0.0 6.4 0.00 0.00 0.00 12 1014.4
20260502195333 35 85 6.4 11.3 0.00 0.00 0.00 10 1014.3
20260502194830 34 163 0.0 9.7 0.00 0.00 0.00 11 1014.6
20260502194327 35 192 3.2 14.5 0.00 0.00 0.00 10 1014.7
20260502193822 35 133 4.8 9.7 0.00 0.00 0.00 10 1014.9
20260502193320 35 114 6.4 14.5 0.00 0.00 0.00 10 1014.9
20260502192815 35 195 4.8 14.5 0.00 0.00 0.00 9 1014.9
20260502192312 35 101 9.7 11.3 0.00 0.00 0.00 10 1014.8
20260502191810 36 132 1.6 4.8 0.00 0.00 0.00 9 1014.8
20260502191308 35 253 3.2 4.8 0.00 0.00 0.00 10 1014.9
20260502190804 34 105 4.8 8.0 0.00 0.00 0.00 10 1015.1
20260502190302 35 86 6.4 16.1 0.00 0.00 0.00 10 1015.1
20260502185757 35 157 3.2 6.4 0.00 0.00 0.00 10 1015.1
20260502185253 35 156 4.8 25.7 0.00 0.00 0.00 11 1014.9
20260502184750 35 154 4.8 11.3 0.00 0.00 0.00 11 1015.0
20260502184246 35 135 0.0 8.0 0.00 0.00 0.00 10 1015.2
20260502183743 35 92 8.0 14.5 0.00 0.00 0.00 10 1015.3
20260502183239 34 104 4.8 9.7 0.00 0.00 0.00 11 1015.4
20260502182734 35 96 6.4 9.7 0.00 0.00 0.00 11 1015.5
20260502182230 34 190 1.6 8.0 0.00 0.00 0.00 11 1015.5
20260502181726 33 183 6.4 9.7 0.00 0.00 0.00 11 1015.6
20260502181220 34 117 3.2 9.7 0.00 0.00 0.00 11 1015.5
20260502180717 34 99 11.3 11.3 0.00 0.00 0.00 10 1015.5
20260502180214 33 286 8.0 8.0 0.00 0.00 0.00 11 1015.5
20260502170137 33 101 1.6 3.2 0.00 0.00 0.00 12 1015.6
20260502164124 32 91 6.4 8.0 0.00 0.00 0.00 16 1015.8
20260502163620 32 86 3.2 4.8 0.00 0.00 0.00 17 1015.9
20260502163117 32 80 1.6 4.8 0.00 0.00 0.00 17 1015.8
20260502162614 32 101 3.2 6.4 0.00 0.00 0.00 18 1015.8
20260502162111 32 93 3.2 4.8 0.00 0.00 0.00 18 1015.9
20260502161608 31 298 0.0 4.8 0.00 0.00 0.00 18 1015.8
20260502161105 31 67 3.2 4.8 0.00 0.00 0.00 19 1015.9
20260502160603 31 87 4.8 4.8 0.00 0.00 0.00 19 1015.9
20260502152010 28 76 0.0 1.6 0.00 0.00 0.00 22 1015.7
20260502151506 28 279 1.6 3.2 0.00 0.00 0.00 23 1015.8
20260502151004 28 205 0.0 1.6 0.00 0.00 0.00 23 1015.8
20260502150501 28 89 0.0 1.6 0.00 0.00 0.00 23 1015.8
20260502130346 18 247 3.2 6.4 0.00 0.00 0.00 33 1014.8
20260502123329 20 69 0.0 3.2 0.00 0.00 0.00 33 1014.7
20260502122826 20 293 0.0 6.4 0.00 0.00 0.00 34 1014.4
20260502122321 20 226 4.8 6.4 0.00 0.00 0.00 34 1014.4
20260502121821 18 60 3.2 3.2 0.00 0.00 0.00 35 1014.4
20260502121317 20 49 1.6 3.2 0.00 0.00 0.00 34 1014.5
20260502120814 20 95 3.2 4.8 0.00 0.00 0.00 33 1014.3
20260502120311 20 191 0.0 3.2 0.00 0.00 0.00 33 1014.2
20260502115809 18 202 0.0 1.6 0.00 0.00 0.00 34 1014.3
20260502115306 18 245 0.0 3.2 0.00 0.00 0.00 35 1014.1
20260502114801 18 168 1.6 3.2 0.00 0.00 0.00 35 1014.1
20260502114258 19 230 0.0 6.4 0.00 0.00 0.00 35 1014.1
20260502113755 20 277 0.0 3.2 0.00 0.00 0.00 35 1014.2
20260502113253 19 209 1.6 3.2 0.00 0.00 0.00 36 1014.3
20260502112751 18 260 3.2 4.8 0.00 0.00 0.00 37 1014.2
20260502112249 18 249 1.6 3.2 0.00 0.00 0.00 37 1014.2
20260502111745 18 232 0.0 4.8 0.00 0.00 0.00 38 1014.2
20260502111243 20 265 3.2 3.2 0.00 0.00 0.00 36 1014.3
20260502110740 20 134 0.0 3.2 0.00 0.00 0.00 37 1014.4
20260502110238 20 236 0.0 1.6 0.00 0.00 0.00 37 1014.2
20260502105736 19 240 0.0 1.6 0.00 0.00 0.00 37 1014.5
20260502105232 18 247 3.2 8.0 0.00 0.00 0.00 37 1014.2
20260502104730 19 245 4.8 4.8 0.00 0.00 0.00 36 1014.2
20260502104227 20 63 0.0 3.2 0.00 0.00 0.00 36 1014.4
20260502103725 20 95 4.8 4.8 0.00 0.00 0.00 35 1014.2
20260502103222 21 334 3.2 4.8 0.00 0.00 0.00 32 1014.0
20260502102719 22 343 4.8 6.4 0.00 0.00 0.00 29 1014.0
20260502102215 22 183 0.0 3.2 0.00 0.00 0.00 29 1013.8
20260502101714 21 134 0.0 3.2 0.00 0.00 0.00 31 1013.8
20260502101212 21 182 0.0 4.8 0.00 0.00 0.00 31 1013.9
20260502100709 21 108 0.0 3.2 0.00 0.00 0.00 33 1013.7
20260502100208 21 213 3.2 4.8 0.00 0.00 0.00 33 1013.6
20260502091142 21 133 0.0 1.6 0.00 0.00 0.00 36 1014.0
20260502090639 21 66 0.0 3.2 0.00 0.00 0.00 34 1013.9
20260502090136 21 210 1.6 3.2 0.00 0.00 0.00 35 1014.0
20260502071533 22 252 0.0 3.2 0.00 0.00 0.00 34 1014.2
20260502071031 22 6 0.0 3.2 0.00 0.00 0.00 35 1014.3
20260502070529 23 315 1.6 3.2 0.00 0.00 0.00 33 1014.2
20260502070027 24 329 0.0 6.4 0.00 0.00 0.00 31 1014.2
20260502065525 25 235 0.0 6.4 0.00 0.00 0.00 27 1014.1
20260502065023 25 221 3.2 8.0 0.00 0.00 0.00 26 1014.2
20260502064521 25 201 3.2 8.0 0.00 0.00 0.00 26 1014.3
20260502064018 25 221 3.2 6.4 0.00 0.00 0.00 28 1014.2
20260502063515 23 254 3.2 8.0 0.00 0.00 0.00 30 1014.3
20260502063013 23 230 0.0 3.2 0.00 0.00 0.00 30 1014.3
20260502062510 23 200 0.0 1.6 0.00 0.00 0.00 30 1014.4
20260502062009 24 139 0.0 3.2 0.00 0.00 0.00 29 1014.2
20260502061506 25 89 0.0 3.2 0.00 0.00 0.00 31 1014.1
20260502061003 25 338 1.6 4.8 0.00 0.00 0.00 31 1014.3
20260502060457 26 246 0.0 1.6 0.00 0.00 0.00 31 1014.1
20260502055954 26 104 4.8 4.8 0.00 0.00 0.00 30 1014.0
20260502055452 26 281 0.0 4.8 0.00 0.00 0.00 29 1014.2
20260502054946 27 185 3.2 4.8 0.00 0.00 0.00 28 1014.1
20260502054444 26 211 0.0 6.4 0.00 0.00 0.00 28 1013.8
20260502053941 26 205 1.6 6.4 0.00 0.00 0.00 28 1014.0
20260502053437 26 72 0.0 3.2 0.00 0.00 0.00 27 1013.9
20260502052935 26 259 1.6 4.8 0.00 0.00 0.00 28 1013.8
20260502052433 26 247 1.6 1.6 0.00 0.00 0.00 27 1014.0
20260502051932 26 53 3.2 4.8 0.00 0.00 0.00 27 1013.9
20260502051429 27 104 3.2 8.0 0.00 0.00 0.00 25 1013.9
20260502050926 27 279 1.6 3.2 0.00 0.00 0.00 24 1013.9
20260502050423 27 236 4.8 6.4 0.00 0.00 0.00 23 1013.8
20260502045920 27 62 3.2 3.2 0.00 0.00 0.00 26 1013.9
20260502045416 27 354 4.8 4.8 0.00 0.00 0.00 25 1013.6
20260502044914 28 291 1.6 4.8 0.00 0.00 0.00 24 1013.6
20260502044409 28 248 3.2 3.2 0.00 0.00 0.00 24 1013.6
20260502043906 28 300 3.2 8.0 0.00 0.00 0.00 22 1013.5
20260502043404 29 304 4.8 8.0 0.00 0.00 0.00 22 1013.7
20260502042903 29 267 4.8 11.3 0.00 0.00 0.00 22 1013.4
20260502042401 29 249 12.9 16.1 0.00 0.00 0.00 22 1013.4
20260502041858 29 241 9.7 11.3 0.00 0.00 0.00 22 1013.3
20260502041355 30 253 9.7 17.7 0.00 0.00 0.00 23 1013.4
20260502040853 30 233 4.8 19.3 0.00 0.00 0.00 23 1013.3
20260502040349 30 240 8.0 9.7 0.00 0.00 0.00 23 1013.2
20260502035845 30 244 8.0 17.7 0.00 0.00 0.00 23 1013.1
20260502035342 30 233 4.8 19.3 0.00 0.00 0.00 23 1013.0
20260502034839 30 253 11.3 16.1 0.00 0.00 0.00 23 1012.8
20260502034338 30 246 4.8 17.7 0.00 0.00 0.00 23 1012.8
20260502033836 30 262 14.5 19.3 0.00 0.00 0.00 23 1012.5
20260502033333 30 286 6.4 20.9 0.00 0.00 0.00 23 1012.5
20260502032830 30 268 6.4 14.5 0.00 0.00 0.00 24 1012.6
20260502032326 30 316 14.5 20.9 0.00 0.00 0.00 24 1012.4
20260502031824 30 274 8.0 29.0 0.00 0.00 0.00 25 1012.3
20260502031322 30 323 14.5 22.5 0.00 0.00 0.00 25 1012.2
20260502030820 30 316 16.1 24.1 0.00 0.00 0.00 26 1012.0
20260502030318 30 319 22.5 27.4 0.00 0.00 0.00 25 1012.3
20260502025815 30 284 12.9 29.0 0.00 0.00 0.00 24 1012.2
20260502025313 30 304 16.1 24.1 0.00 0.00 0.00 24 1011.8
20260502024810 30 309 14.5 24.1 0.00 0.00 0.00 22 1011.8
20260502024308 30 322 14.5 25.7 0.00 0.00 0.00 23 1012.0
20260502023805 30 302 14.5 22.5 0.00 0.00 0.00 23 1012.0
20260502023303 30 303 14.5 22.5 0.00 0.00 0.00 24 1011.7
20260502022800 30 312 14.5 24.1 0.00 0.00 0.00 24 1011.7
20260502022256 30 320 16.1 24.1 0.00 0.00 0.00 24 1011.8
20260502021753 30 286 8.0 29.0 0.00 0.00 0.00 25 1011.6
20260502021251 30 310 20.9 27.4 0.00 0.00 0.00 25 1011.6
20260502020748 31 297 20.9 24.1 0.00 0.00 0.00 24 1011.7
20260502020246 31 300 9.7 25.7 0.00 0.00 0.00 24 1011.7
20260502015743 31 317 22.5 27.4 0.00 0.00 0.00 23 1011.5
20260502015239 31 302 14.5 25.7 0.00 0.00 0.00 24 1011.5
20260502014737 31 306 14.5 22.5 0.00 0.00 0.00 24 1011.5
20260502014233 31 313 6.4 25.7 0.00 0.00 0.00 23 1011.4